Torna al catalogo

DELTA 1 DEB

AttivoPO
NORAD 21496·DEBRIS·🇺🇸 United States

Lanciato Jun 12, 1975 da Vandenberg Space Force Base

Loading…

Prossimi Passaggi (prossime 24 ore)

TLE

AggiornatoSource: Space-Track

Epoca: Sep 14, 2026, 02:28 UTC

1 21496U 75052FR  26257.10334691 -.00000007  00000-0  99718-4 0  9996
2 21496  99.8131 120.2478 0340156 201.2013 314.7484 12.82626997653925

Traccia DELTA 1 DEB in tempo reale con AllMySat

Download on the App Store